Location: Godziszka
(49.7127°N, 19.0761°E)
Time: 00:01:46
(UTC+01:00)

ISS - Visible Passes

Search period start: 24 January 2019 00:00
Search period end: 03 February 2019 00:00
Orbit: 404 x 410 km, 51.6° (Epoch: 24 January)

Date Brightness Start Highest point End Pass type
(mag) Time Alt. Az. Time Alt. Az. Time Alt. Az.
24 Jan -2.1 17:48:47 10° S 17:51:17 20° SE 17:52:04 18° ESE visible
24 Jan -0.8 19:24:09 10° WSW 19:24:47 15° WSW 19:24:47 15° WSW visible
25 Jan -3.3 18:32:53 10° SW 18:35:41 50° S 18:35:41 50° S visible
26 Jan -2.9 17:41:45 10° SW 17:44:49 37° SSE 17:46:30 21° E visible
26 Jan -1.2 19:17:58 10° W 19:19:14 21° W 19:19:14 21° W visible
27 Jan -4.0 18:26:31 10° WSW 18:29:50 89° NW 18:30:00 81° ENE visible
28 Jan -3.7 17:35:10 10° WSW 17:38:26 67° SSE 17:40:43 18° ENE visible
28 Jan -1.6 19:11:47 10° W 19:13:26 26° WNW 19:13:26 26° WNW visible
29 Jan -3.7 18:20:17 10° W 18:23:35 66° N 18:24:07 54° NE visible
30 Jan -3.8 17:28:48 10° WSW 17:32:06 80° NNW 17:34:47 15° ENE visible
30 Jan -2.0 19:05:32 10° WNW 19:07:30 32° WNW 19:07:30 32° WNW visible
31 Jan -3.6 18:14:02 10° W 18:17:19 59° N 18:18:09 42° NE visible
31 Jan -0.3 19:50:40 10° WNW 19:50:52 11° WNW 19:50:52 11° WNW visible
01 Feb -3.6 17:22:30 10° W 17:25:47 63° N 17:28:49 12° ENE visible
01 Feb -2.6 18:59:12 10° WNW 19:01:32 42° WNW 19:01:32 42° WNW visible
02 Feb -3.7 18:07:42 10° WNW 18:11:00 64° N 18:12:12 35° ENE visible
02 Feb -0.6 19:44:18 10° WNW 19:44:55 14° W 19:44:55 14° W visible
